Wind_Speed
7 7 7 7 7 7 8 8 8 8 8 8 9 10 11 12 13 13 14 15 15 16 16 17 18 19 19 20 21 21 22 22 23 24 24 25 25 26
8 8 8 8 8 8 8 8 8 8 8 9 9 10 11 12 13 13 14 15 15 16 17 17 18 20 20 21 21 22 23 23 24 25 26 27 27 27
8 8 8 9 9 9 9 8 8 9 9 10 10 11 12 13 14 14 14 15 16 17 18 18 20 20 21 22 22 23 23 24 25 26 27 28 29 29
8 8 8 8 9 9 9 9 9 9 10 11 12 12 13 14 14 15 16 17 18 19 20 21 21 22 22 23 23 24 25 25 26 27 28 29 30 30
8 8 9 9 8 9 9 9 10 10 11 12 13 14 14 15 16 17 18 19 19 20 21 22 23 23 23 24 25 26 26 27 28 28 29 29 30 31
8 8 8 8 9 10 10 10 11 12 13 14 14 15 16 17 18 19 20 20 21 22 23 23 23 24 24 25 26 26 27 28 29 30 30 31 32 33
9 9 10 10 10 11 12 12 13 14 15 15 16 17 17 18 19 20 21 22 23 23 24 24 25 25 26 26 27 28 29 30 30 31 32 33 33 34
10 10 10 11 11 12 14 15 15 16 16 17 18 19 20 20 21 22 23 24 24 25 26 26 27 27 27 27 28 29 30 31 32 32 33 34 34 35
12 12 13 13 14 14 15 16 17 17 18 18 19 20 22 22 23 24 25 25 26 27 27 27 28 28 29 29 30 31 32 32 33 34 35 35 36 36
14 14 15 15 15 16 17 17 18 19 19 20 21 22 23 23 24 25 26 27 27 27 28 28 29 30 31 31 32 32 33 34 34 35 36 36 36 37
16 16 16 17 17 18 19 19 20 20 20 21 22 23 24 25 26 27 27 28 28 29 29 29 30 31 32 33 33 34 35 35 35 36 36 37 38 38
17 18 19 19 19 20 20 21 21 22 23 23 24 24 25 26 27 28 29 29 29 29 30 31 32 33 33 33 34 35 36 36 37 37 38 39 39 39
19 20 20 21 22 22 22 22 22 23 24 25 25 26 27 27 28 29 29 30 31 31 32 33 33 34 35 35 35 36 37 38 38 39 39 40 40 39
20 21 22 23 23 23 23 24 24 25 26 26 27 28 28 29 29 30 30 31 32 33 33 34 35 35 36 36 37 37 38 39 39 40 40 40 40 39
22 23 24 24 24 25 25 26 27 27 28 28 29 29 30 31 31 31 31 32 33 34 35 35 36 36 37 38 38 38 38 39 40 40 40 40 40 39
23 24 25 26 26 27 27 27 28 29 29 30 30 31 31 32 32 33 33 34 35 35 35 36 36 37 38 39 39 39 39 40 40 40 40 40 40 40
25 26 27 28 28 28 28 29 30 30 30 31 31 32 32 33 33 34 35 36 37 36 36 37 38 38 39 40 40 40 41 41 41 41 41 40 40 41
28 28 29 29 29 29 30 30 31 31 31 32 33 33 34 34 35 36 37 37 37 37 38 39 39 40 41 41 42 42 42 42 41 41 40 40 40 41
29 29 29 29 30 30 30 31 31 32 32 33 34 34 35 36 36 37 37 37 38 39 39 40 40 41 42 42 42 43 43 43 42 41 41 41 41 41
29 29 30 30 30 31 31 32 32 33 34 34 35 35 36 37 37 37 38 38 39 39 40 40 41 42 42 43 43 42 43 42 41 41 41 42 41 41
30 30 30 30 31 31 32 33 34 34 35 35 36 37 37 37 37 38 39 39 39 40 40 40 42 42 43 43 43 42 41 41 41 40 41 42 41 40
31 31 31 31 32 32 33 34 35 35 36 37 37 37 37 38 38 39 39 39 39 40 40 41 42 43 43 44 43 42 41 41 40 40 41 41 40 39
31 31 31 32 32 33 34 35 36 36 37 38 38 38 38 38 39 39 39 40 40 41 41 42 43 43 43 43 42 41 41 41 40 40 40 39 38 39
Wind_Direction
275 270 274 278 277 276 277 273 275 278 279 281 281 280 283 286 286 287 287 288 286 286 289 290 291 290 290 289 290 289 290 290 291 291 291 290 290 289
280 276 277 278 276 276 276 276 276 279 282 283 285 288 290 291 294 294 294 292 291 291 292 293 293 293 294 294 293 292 292 292 292 292 292 291 290 290
282 283 282 278 278 277 278 280 279 279 282 286 288 290 292 293 295 294 293 294 294 294 295 295 295 295 295 295 294 293 293 293 293 292 292 291 290 290
284 287 286 284 280 280 280 280 279 280 283 286 289 291 293 294 295 294 294 294 294 294 295 295 295 295 295 294 293 293 294 294 294 294 294 293 292 292
287 288 289 286 283 282 281 281 282 283 286 288 290 294 296 295 294 293 293 294 295 296 297 297 295 295 295 294 293 293 294 295 295 296 296 295 294 294
290 290 291 289 285 285 286 286 285 286 287 289 290 291 293 294 295 295 296 297 297 298 298 299 298 296 296 295 295 295 296 296 297 298 297 297 296 295
287 286 286 287 287 288 288 287 287 288 290 291 292 292 292 293 295 296 297 298 299 299 299 299 298 298 297 295 295 296 297 297 298 298 298 297 296 295
289 287 286 287 289 292 291 289 289 290 291 292 293 293 293 294 295 296 296 297 297 298 299 299 299 299 298 297 296 296 297 297 298 298 298 298 297 296
287 286 286 286 287 289 290 290 290 290 292 293 295 295 295 295 296 297 298 298 298 298 298 298 298 299 299 298 298 298 298 298 299 299 299 298 297 297
286 286 286 288 290 291 291 292 293 293 293 294 296 297 297 297 298 299 299 299 299 299 298 298 298 298 298 299 299 299 299 299 299 299 299 299 298 298
285 286 288 290 291 290 292 293 293 293 294 295 296 297 297 297 299 299 299 299 299 299 299 299 298 299 299 299 299 299 300 300 300 300 300 300 299 299
287 287 289 291 292 291 291 292 293 293 293 294 295 296 297 298 299 299 299 299 299 299 299 300 299 300 300 300 300 300 300 300 299 300 300 300 300 299
288 288 288 290 291 291 291 291 292 293 294 294 294 297 298 298 299 299 299 300 300 300 301 300 300 300 301 301 301 300 300 300 299 299 300 300 300 299
289 289 289 290 292 292 291 291 291 293 293 294 294 295 297 297 298 298 299 300 301 302 302 301 301 301 301 301 301 301 300 300 299 299 299 299 299 299
290 289 288 289 291 291 292 292 292 291 292 293 294 295 296 297 298 298 298 299 301 302 302 302 301 301 302 302 302 302 302 301 301 300 299 299 300 300
289 289 289 289 289 290 291 291 292 292 292 292 294 294 295 296 297 297 298 298 299 300 301 301 301 302 302 302 302 302 302 302 301 300 300 301 301 301
289 289 289 289 290 290 290 291 293 294 294 293 294 294 294 295 297 298 298 299 300 299 299 300 301 302 303 303 303 303 303 303 301 300 300 301 301 302
288 288 289 290 290 290 291 292 293 295 295 295 295 294 294 295 296 298 299 299 299 300 300 300 301 302 304 304 304 304 303 302 301 300 300 300 301 301
288 289 290 291 291 290 290 292 293 294 294 295 296 296 296 297 297 298 298 299 300 301 302 302 302 303 304 305 305 304 304 303 301 300 300 300 301 302
290 290 291 291 292 292 291 291 292 292 293 294 294 295 296 297 297 298 298 299 300 301 302 303 303 304 305 305 305 305 304 303 301 300 300 301 301 302
290 290 291 292 293 293 293 293 293 293 294 294 295 296 296 296 296 298 299 300 301 301 302 303 303 304 305 305 305 305 304 303 302 300 301 301 302 302
290 291 292 293 294 294 294 294 294 294 295 295 295 296 297 297 297 299 299 300 301 302 303 303 304 304 305 306 305 305 304 304 303 302 302 303 303 304
289 291 292 293 294 294 295 296 295 295 296 296 296 296 296 296 297 297 299 300 300 301 302 303 304 305 305 306 306 305 304 304 303 304 303 303 304 306
Height
5845 5844 5844 5843 5843 5842 5842 5841 5841 5840 5840 5838 5838 5837 5836 5835 5834 5832 5831 5830 5829 5827 5826 5824 5823 5822 5820 5818 5817 5815 5813 5812 5810 5808 5806 5804 5802 5800
5843 5842 5842 5841 5841 5840 5839 5839 5838 5838 5837 5836 5835 5834 5833 5832 5831 5829 5828 5827 5825 5824 5822 5820 5819 5817 5815 5813 5811 5810 5808 5806 5804 5802 5800 5798 5796 5793
5841 5840 5840 5839 5838 5838 5837 5836 5836 5835 5835 5834 5833 5831 5830 5829 5827 5826 5824 5823 5821 5820 5818 5816 5814 5812 5810 5808 5806 5804 5802 5800 5798 5795 5793 5791 5788 5786
5839 5838 5837 5837 5836 5835 5834 5834 5833 5832 5832 5831 5830 5828 5827 5825 5824 5822 5821 5819 5817 5815 5813 5811 5809 5807 5804 5802 5800 5798 5796 5793 5791 5788 5786 5783 5781 5778
5836 5836 5835 5834 5833 5832 5832 5831 5830 5829 5828 5827 5826 5825 5823 5822 5820 5818 5816 5814 5812 5810 5808 5806 5803 5801 5799 5796 5794 5791 5789 5787 5784 5781 5778 5775 5773 5770
5834 5833 5832 5832 5831 5830 5829 5828 5827 5826 5825 5824 5822 5821 5819 5817 5816 5814 5812 5809 5807 5805 5802 5800 5797 5795 5792 5790 5787 5785 5782 5779 5776 5773 5770 5767 5764 5761
5832 5831 5830 5829 5828 5827 5826 5825 5824 5822 5821 5819 5818 5816 5815 5813 5811 5809 5807 5804 5802 5799 5796 5794 5791 5788 5785 5783 5780 5777 5774 5771 5768 5765 5762 5758 5755 5751
5829 5828 5827 5826 5825 5824 5822 5821 5820 5818 5817 5815 5813 5811 5809 5807 5805 5803 5801 5799 5796 5793 5790 5787 5784 5781 5778 5776 5773 5770 5766 5763 5760 5756 5753 5749 5745 5742
5825 5824 5823 5822 5821 5820 5818 5817 5815 5813 5812 5810 5808 5806 5804 5802 5799 5797 5794 5792 5789 5786 5783 5780 5777 5774 5771 5768 5765 5761 5758 5754 5751 5747 5743 5740 5736 5732
5822 5820 5819 5818 5817 5815 5814 5812 5810 5808 5807 5805 5803 5800 5798 5796 5793 5791 5788 5785 5782 5779 5776 5773 5770 5766 5763 5759 5756 5752 5749 5745 5742 5738 5734 5730 5726 5722
5817 5816 5815 5813 5812 5810 5808 5807 5805 5803 5801 5799 5797 5794 5792 5789 5786 5784 5781 5778 5775 5772 5768 5765 5762 5758 5755 5751 5747 5743 5740 5736 5732 5728 5724 5720 5715 5711
5812 5811 5810 5808 5806 5804 5803 5801 5799 5797 5795 5792 5790 5788 5785 5782 5779 5776 5773 5770 5767 5764 5760 5757 5753 5749 5746 5742 5738 5734 5730 5726 5722 5718 5714 5709 5704 5700
5807 5806 5804 5802 5801 5798 5796 5795 5792 5790 5788 5785 5783 5781 5778 5775 5772 5769 5765 5762 5759 5756 5752 5748 5744 5740 5737 5733 5729 5724 5720 5716 5711 5707 5703 5698 5693 5688
5801 5800 5798 5796 5794 5792 5790 5788 5786 5783 5781 5778 5776 5773 5770 5767 5764 5761 5757 5754 5750 5747 5743 5739 5735 5731 5727 5723 5719 5715 5710 5705 5700 5696 5691 5686 5682 5677
5795 5793 5791 5789 5787 5785 5783 5780 5778 5775 5773 5770 5768 5765 5762 5759 5755 5752 5749 5745 5741 5737 5733 5729 5725 5721 5717 5713 5708 5704 5699 5694 5689 5684 5679 5675 5670 5665
5788 5786 5784 5782 5779 5777 5775 5772 5770 5767 5764 5762 5759 5756 5753 5749 5746 5743 5739 5736 5732 5728 5724 5720 5715 5711 5707 5702 5697 5692 5688 5683 5678 5672 5667 5663 5658 5653
5780 5778 5776 5774 5771 5769 5766 5764 5761 5758 5755 5752 5749 5746 5743 5740 5736 5733 5729 5725 5721 5718 5714 5710 5705 5700 5695 5691 5686 5681 5675 5670 5665 5660 5656 5651 5647 5642
5772 5770 5767 5765 5762 5760 5757 5755 5752 5749 5746 5742 5739 5736 5733 5730 5726 5722 5719 5715 5711 5707 5703 5699 5694 5689 5685 5679 5674 5668 5663 5657 5652 5648 5643 5639 5635 5630
5763 5760 5758 5756 5753 5751 5748 5745 5742 5739 5736 5733 5729 5726 5722 5719 5715 5712 5708 5704 5700 5696 5692 5687 5682 5677 5673 5668 5663 5656 5650 5644 5639 5635 5631 5626 5622 5617
5753 5751 5749 5746 5744 5741 5738 5735 5732 5729 5726 5722 5719 5715 5711 5708 5704 5701 5697 5693 5688 5684 5680 5675 5671 5666 5661 5656 5650 5644 5638 5632 5627 5623 5619 5614 5609 5605
5744 5741 5739 5736 5734 5731 5728 5725 5722 5718 5715 5711 5708 5704 5700 5696 5693 5689 5685 5681 5677 5672 5668 5664 5659 5654 5648 5643 5638 5632 5626 5620 5615 5611 5606 5602 5597 5592
5734 5732 5729 5726 5723 5720 5717 5714 5710 5707 5704 5700 5696 5693 5689 5685 5681 5677 5673 5669 5665 5661 5656 5652 5647 5642 5636 5631 5625 5620 5615 5609 5604 5599 5594 5589 5584 5580
5724 5721 5719 5716 5713 5710 5706 5703 5699 5695 5692 5688 5684 5680 5677 5673 5669 5665 5661 5657 5653 5649 5644 5640 5635 5630 5624 5619 5613 5608 5603 5598 5593 5588 5584 5578 5573 5569